TimeCEST,TemperatureF,Dew PointF,Humidity,Sea Level PressureIn,VisibilityMPH,Wind Direction,Wind SpeedMPH,Gust SpeedMPH,PrecipitationIn,Events,Conditions,WindDirDegrees,DateUTC
12:03 AM,46.4,42.8,87,29.89,6.2,East,8.1,-,N/A,,Mostly Cloudy,90,2013-10-10 22:03:00
12:25 AM,44.6,42.8,93,29.89,6.2,East,11.5,-,N/A,,Mostly Cloudy,100,2013-10-10 22:25:00
12:55 AM,44.6,42.8,93,29.92,6.2,East,5.8,-,N/A,,Scattered Clouds,80,2013-10-10 22:55:00
1:25 AM,42.8,41.0,93,29.92,6.2,East,5.8,-,N/A,,Partly Cloudy,90,2013-10-10 23:25:00
1:55 AM,42.8,41.0,93,29.95,6.2,ENE,9.2,-,N/A,,Partly Cloudy,60,2013-10-10 23:55:00
2:00 AM,42,41,93,29.97,7,ENE,8.9,,,,Partly Cloudy,70,2013-10-11 00:00:00
2:25 AM,42.8,41.0,93,29.98,6.2,ENE,8.1,-,N/A,,Scattered Clouds,70,2013-10-11 00:25:00
2:55 AM,42.8,41.0,93,29.98,6.2,ENE,6.9,-,N/A,,Overcast,60,2013-10-11 00:55:00
3:25 AM,41.0,41.0,100,30.01,5.6,ENE,5.8,-,N/A,,Mostly Cloudy,70,2013-10-11 01:25:00
3:55 AM,42.8,41.0,93,30.01,6.2,ENE,6.9,-,N/A,,Overcast,70,2013-10-11 01:55:00
4:25 AM,44.6,42.8,93,30.01,6.2,ENE,8.1,-,N/A,,Overcast,70,2013-10-11 02:25:00
4:55 AM,46.4,42.8,87,30.01,6.2,ENE,6.9,-,N/A,,Mostly Cloudy,70,2013-10-11 02:55:00
5:25 AM,46.4,44.6,93,30.04,6.2,ENE,3.5,-,N/A,,Overcast,70,2013-10-11 03:25:00
5:55 AM,48.2,44.6,87,30.04,5.6,ENE,5.8,-,N/A,,Mostly Cloudy,60,2013-10-11 03:55:00
6:25 AM,48.2,44.6,87,30.04,6.2,ENE,6.9,-,N/A,,Overcast,60,2013-10-11 04:25:00
6:41 AM,48.2,44.6,87,30.04,4.3,NE,4.6,-,N/A,,Light Drizzle,50,2013-10-11 04:41:00
6:45 AM,48.2,44.6,87,30.04,5.0,NE,3.5,-,N/A,Rain,Light Rain,40,2013-10-11 04:45:00
6:55 AM,46.4,44.6,93,30.04,5.6,NNE,3.5,-,N/A,Rain,Light Rain,30,2013-10-11 04:55:00
7:00 AM,46.4,44.6,93,30.04,6.2,NNE,3.5,-,N/A,,Light Drizzle,20,2013-10-11 05:00:00
7:09 AM,48.2,46.4,93,30.04,6.2,NNE,5.8,-,N/A,,Mostly Cloudy,20,2013-10-11 05:09:00
7:25 AM,48.2,46.4,93,30.04,3.7,NNE,6.9,-,N/A,Rain,Light Rain,30,2013-10-11 05:25:00
7:55 AM,48.2,48.2,100,30.04,3.1,North,4.6,-,N/A,,Drizzle,10,2013-10-11 05:55:00
7:56 AM,48.2,48.2,100,30.04,3.1,North,4.6,-,N/A,,Drizzle,360,2013-10-11 05:56:00
8:00 AM,49,48,97,30.04,3,North,4.5,,,Rain,Light Rain,0,2013-10-11 06:00:00
8:08 AM,50.0,48.2,94,30.04,3.1,North,5.8,-,N/A,Rain,Light Rain,360,2013-10-11 06:08:00
8:11 AM,50.0,48.2,94,30.04,3.7,North,4.6,-,N/A,Rain,Light Rain,360,2013-10-11 06:11:00
8:14 AM,50.0,48.2,94,30.04,4.3,North,5.8,-,N/A,Rain,Rain,360,2013-10-11 06:14:00
8:25 AM,50.0,48.2,94,30.01,4.3,North,9.2,-,N/A,,Drizzle,350,2013-10-11 06:25:00
8:26 AM,50.0,48.2,94,30.01,-9999.0,NNW,9.2,-,N/A,,Heavy Drizzle,340,2013-10-11 06:26:00
8:37 AM,50.0,50.0,100,30.01,5.0,North,8.1,-,N/A,Rain,Light Rain,350,2013-10-11 06:37:00
8:44 AM,51.8,50.0,94,30.01,5.0,North,6.9,-,N/A,Rain,Rain,360,2013-10-11 06:44:00
8:55 AM,51.8,51.8,100,30.01,5.0,NNE,10.4,-,N/A,Rain,Light Rain,20,2013-10-11 06:55:00
9:06 AM,53.6,51.8,94,30.01,5.6,NE,16.1,-,N/A,Rain,Rain,40,2013-10-11 07:06:00
9:25 AM,53.6,51.8,94,30.01,5.6,NE,19.6,-,N/A,Rain,Light Rain,40,2013-10-11 07:25:00
9:34 AM,55.4,51.8,88,30.01,4.3,NE,21.9,-,N/A,Rain,Rain,40,2013-10-11 07:34:00
9:55 AM,55.4,53.6,94,30.01,5.0,NE,24.2,-,N/A,Rain,Light Rain,40,2013-10-11 07:55:00
10:10 AM,55.4,53.6,94,30.01,4.3,NE,24.2,-,N/A,Rain,Light Rain,50,2013-10-11 08:10:00
10:14 AM,55.4,53.6,94,30.01,4.3,NE,24.2,-,N/A,Rain,Light Rain,50,2013-10-11 08:14:00
10:25 AM,55.4,53.6,94,30.01,3.7,NE,25.3,36.8,N/A,,Overcast,50,2013-10-11 08:25:00
10:37 AM,55.4,53.6,94,30.01,3.7,NE,24.2,-,N/A,,Mostly Cloudy,50,2013-10-11 08:37:00
10:55 AM,55.4,53.6,94,30.01,3.7,NE,25.3,-,N/A,,Mostly Cloudy,50,2013-10-11 08:55:00
11:25 AM,57.2,53.6,88,30.01,4.3,NE,27.6,-,N/A,,Mostly Cloudy,50,2013-10-11 09:25:00
11:26 AM,57.2,51.8,82,30.01,4.3,NE,27.6,-,N/A,,Mostly Cloudy,50,2013-10-11 09:26:00
11:34 AM,57.2,53.6,88,30.01,4.3,NE,27.6,-,N/A,,Overcast,50,2013-10-11 09:34:00
11:38 AM,57.2,53.6,88,30.01,4.3,NE,27.6,-,N/A,,Overcast,50,2013-10-11 09:38:00
11:42 AM,57.2,53.6,88,30.01,4.3,NE,27.6,-,N/A,,Mostly Cloudy,50,2013-10-11 09:42:00
11:46 AM,57.2,53.6,88,30.01,3.7,NE,27.6,41.4,N/A,,Mostly Cloudy,50,2013-10-11 09:46:00
11:55 AM,57.2,53.6,88,30.01,3.7,NE,28.8,41.4,N/A,,Overcast,50,2013-10-11 09:55:00
12:25 PM,57.2,53.6,88,30.04,3.7,NE,29.9,-,N/A,,Overcast,50,2013-10-11 10:25:00
12:55 PM,57.2,53.6,88,30.04,3.7,ENE,29.9,-,N/A,,Overcast,60,2013-10-11 10:55:00
1:25 PM,57.2,51.8,82,30.04,4.3,ENE,27.6,-,N/A,,Overcast,60,2013-10-11 11:25:00
1:40 PM,57.2,51.8,82,30.04,4.3,NE,28.8,-,N/A,,Overcast,50,2013-10-11 11:40:00
1:46 PM,57.2,51.8,82,30.04,4.3,NE,28.8,-,N/A,,Overcast,50,2013-10-11 11:46:00
1:47 PM,57.2,51.8,82,30.04,5.0,NE,28.8,41.4,N/A,,Overcast,50,2013-10-11 11:47:00
1:55 PM,57.2,51.8,82,30.04,4.3,NE,28.8,41.4,N/A,,Overcast,50,2013-10-11 11:55:00
2:00 PM,57,52,79,30.05,4,NE,31.3,,,,Mist,50,2013-10-11 12:00:00
2:10 PM,57.2,51.8,82,30.04,5.0,NE,28.8,-,N/A,,Mostly Cloudy,50,2013-10-11 12:10:00
2:14 PM,57.2,51.8,82,30.04,5.0,NE,28.8,-,N/A,,Mostly Cloudy,50,2013-10-11 12:14:00
2:18 PM,57.2,51.8,82,30.04,4.3,NE,28.8,-,N/A,,Mostly Cloudy,50,2013-10-11 12:18:00
2:25 PM,57.2,51.8,82,30.04,5.0,NE,28.8,40.3,N/A,,Overcast,50,2013-10-11 12:25:00
2:39 PM,57.2,51.8,82,30.04,5.0,ENE,31.1,46.0,N/A,,Overcast,60,2013-10-11 12:39:00
2:46 PM,57.2,51.8,82,30.04,5.6,ENE,28.8,43.7,N/A,,Overcast,60,2013-10-11 12:46:00
2:55 PM,57.2,51.8,82,30.04,5.6,ENE,27.6,41.4,N/A,,Overcast,60,2013-10-11 12:55:00
3:25 PM,57.2,51.8,82,30.04,5.6,NE,31.1,-,N/A,,Overcast,50,2013-10-11 13:25:00
3:55 PM,57.2,50.0,77,30.04,6.2,NE,27.6,41.4,N/A,,Overcast,50,2013-10-11 13:55:00
4:25 PM,57.2,51.8,82,30.04,5.6,NE,25.3,-,N/A,,Overcast,50,2013-10-11 14:25:00
4:55 PM,57.2,51.8,82,30.04,5.0,ENE,24.2,-,N/A,,Overcast,60,2013-10-11 14:55:00
5:12 PM,57.2,51.8,82,30.04,5.0,NE,24.2,-,N/A,,Overcast,50,2013-10-11 15:12:00
5:16 PM,57.2,51.8,82,30.04,5.0,NE,24.2,-,N/A,,Overcast,50,2013-10-11 15:16:00
5:25 PM,57.2,51.8,82,30.04,5.0,NE,25.3,-,N/A,,Overcast,50,2013-10-11 15:25:00
5:33 PM,57.2,51.8,82,30.04,5.0,ENE,25.3,-,N/A,,Overcast,60,2013-10-11 15:33:00
5:46 PM,57.2,51.8,82,30.04,5.0,ENE,25.3,36.8,N/A,,Overcast,60,2013-10-11 15:46:00
5:47 PM,57.2,51.8,82,30.04,4.3,NE,24.2,-,N/A,,Overcast,50,2013-10-11 15:47:00
5:55 PM,57.2,51.8,82,30.04,5.0,NE,24.2,-,N/A,,Overcast,50,2013-10-11 15:55:00
5:57 PM,57.2,51.8,82,30.04,4.3,NE,25.3,-,N/A,,Overcast,50,2013-10-11 15:57:00
6:04 PM,57.2,51.8,82,30.04,4.3,NE,25.3,-,N/A,,Overcast,50,2013-10-11 16:04:00
6:25 PM,57.2,51.8,82,30.04,5.0,NE,25.3,-,N/A,,Overcast,50,2013-10-11 16:25:00
6:55 PM,57.2,51.8,82,30.04,5.0,NE,24.2,-,N/A,,Overcast,50,2013-10-11 16:55:00
7:09 PM,57.2,51.8,82,30.04,5.0,NE,25.3,-,N/A,,Overcast,50,2013-10-11 17:09:00
7:17 PM,57.2,51.8,82,30.04,5.0,NE,25.3,-,N/A,,Overcast,50,2013-10-11 17:17:00
7:25 PM,57.2,51.8,82,30.04,5.0,NE,26.5,38.0,N/A,,Overcast,50,2013-10-11 17:25:00
7:27 PM,57.2,51.8,82,30.04,5.0,NE,25.3,38.0,N/A,,Overcast,50,2013-10-11 17:27:00
7:30 PM,57.2,51.8,82,30.04,4.3,NE,24.2,38.0,N/A,,Overcast,50,2013-10-11 17:30:00
7:36 PM,57.2,51.8,82,30.04,5.0,NE,25.3,36.8,N/A,,Overcast,50,2013-10-11 17:36:00
7:40 PM,57.2,51.8,82,30.04,5.0,NE,26.5,-,N/A,,Overcast,50,2013-10-11 17:40:00
7:55 PM,57.2,51.8,82,30.04,4.3,NE,25.3,-,N/A,,Overcast,50,2013-10-11 17:55:00
7:56 PM,57.2,51.8,82,30.04,5.0,NE,25.3,-,N/A,,Overcast,50,2013-10-11 17:56:00
8:00 PM,57,52,79,30.05,5,NE,24.6,,,,Mist,50,2013-10-11 18:00:00
8:09 PM,57.2,51.8,82,30.04,5.0,NE,26.5,-,N/A,,Overcast,50,2013-10-11 18:09:00
8:17 PM,57.2,51.8,82,30.04,5.0,NE,28.8,-,N/A,,Overcast,50,2013-10-11 18:17:00
8:25 PM,57.2,51.8,82,30.04,5.0,NE,27.6,-,N/A,,Overcast,50,2013-10-11 18:25:00
8:55 PM,57.2,51.8,82,30.04,4.3,NE,27.6,-,N/A,,Light Drizzle,50,2013-10-11 18:55:00
9:25 PM,57.2,51.8,82,30.04,4.3,ENE,28.8,40.3,N/A,,Overcast,60,2013-10-11 19:25:00
9:33 PM,57.2,51.8,82,30.04,4.3,NE,28.8,41.4,N/A,,Overcast,50,2013-10-11 19:33:00
9:37 PM,57.2,51.8,82,30.04,4.3,NE,29.9,41.4,N/A,,Overcast,50,2013-10-11 19:37:00
9:50 PM,57.2,51.8,82,30.04,4.3,NE,28.8,40.3,N/A,,Overcast,50,2013-10-11 19:50:00
9:55 PM,57.2,51.8,82,30.04,4.3,NE,27.6,-,N/A,,Overcast,50,2013-10-11 19:55:00
10:09 PM,57.2,51.8,82,30.04,4.3,NE,28.8,-,N/A,,Overcast,50,2013-10-11 20:09:00
10:15 PM,57.2,51.8,82,30.04,4.3,NE,28.8,-,N/A,,Overcast,50,2013-10-11 20:15:00
10:25 PM,57.2,51.8,82,30.04,4.3,NE,28.8,40.3,N/A,,Overcast,50,2013-10-11 20:25:00
10:29 PM,57.2,51.8,82,30.04,4.3,NE,29.9,-,N/A,,Overcast,50,2013-10-11 20:29:00
10:55 PM,57.2,51.8,82,30.04,5.0,ENE,29.9,-,N/A,,Overcast,60,2013-10-11 20:55:00
10:59 PM,57.2,51.8,82,30.04,5.0,ENE,29.9,-,N/A,,Overcast,60,2013-10-11 20:59:00
11:00 PM,57.2,51.8,82,30.04,4.3,ENE,29.9,-,N/A,,Overcast,60,2013-10-11 21:00:00
11:25 PM,57.2,51.8,82,30.04,4.3,ENE,26.5,-,N/A,,Overcast,60,2013-10-11 21:25:00
11:55 PM,57.2,51.8,82,30.04,4.3,ENE,28.8,-,N/A,,Overcast,60,2013-10-11 21:55:00